Hourly Weather Russkiy Kandyz

Today, 16 April, Friday

Time Temperature Precipitation Wind Pressure Humidity
00:00 +12°C° 0 mm 1 mps 744 mmHg 54%
01:00 +12°C° 0 mm 1 mps 744 mmHg 55%
02:00 +11°C° 0 mm 1 mps 744 mmHg 57%
03:00 +11°C° 0 mm 1 mps 744 mmHg 59%
04:00 +10°C° 0 mm 1 mps 744 mmHg 60%
05:00 +11°C° 0 mm 1 mps 744 mmHg 61%
06:00 +10°C° 0 mm 0 mps 744 mmHg 61%
07:00 +10°C° 0 mm 0 mps 744 mmHg 61%
08:00 +12°C° 0 mm 1 mps 744 mmHg 57%
09:00 +14°C° 0 mm 1 mps 744 mmHg 53%
10:00 +15°C° 0 mm 2 mps 745 mmHg 49%
11:00 +17°C° 0 mm 2 mps 745 mmHg 46%
12:00 +18°C° 0 mm 2 mps 745 mmHg 44%
13:00 +19°C° 0 mm 3 mps 745 mmHg 41%
14:00 +19°C° 0 mm 3 mps 745 mmHg 40%
15:00 +19°C° 0 mm 3 mps 745 mmHg 39%
16:00 +20°C° 0 mm 3 mps 745 mmHg 37%
17:00 +18°C° 0 mm 3 mps 745 mmHg 45%
18:00 +17°C° 0 mm 4 mps 745 mmHg 53%
19:00 +15°C° 0 mm 4 mps 745 mmHg 60%
20:00 +13°C° 0 mm 4 mps 745 mmHg 67%
21:00 +12°C° 0 mm 5 mps 745 mmHg 75%
22:00 +10°C° 0 mm 5 mps 746 mmHg 82%
23:00 +9°C° 0 mm 5 mps 746 mmHg 85%

Tomorrow, 17 April, Saturday

Time Temperature Precipitation Wind Pressure Humidity
00:00 +8°C° 0 mm 5 mps 746 mmHg 87%
01:00 +7°C° 0 mm 4 mps 746 mmHg 90%
02:00 +7°C° 0 mm 4 mps 746 mmHg 90%
03:00 +6°C° 0 mm 4 mps 746 mmHg 90%
04:00 +5°C° 0 mm 4 mps 746 mmHg 90%
05:00 +5°C° 0 mm 4 mps 746 mmHg 88%
06:00 +5°C° 0 mm 4 mps 746 mmHg 86%
07:00 +5°C° 0 mm 4 mps 746 mmHg 84%
08:00 +7°C° 0 mm 4 mps 747 mmHg 77%
09:00 +8°C° 0 mm 5 mps 747 mmHg 69%
10:00 +10°C° 0 mm 5 mps 747 mmHg 62%
11:00 +12°C° 0 mm 5 mps 747 mmHg 57%
12:00 +13°C° 0 mm 5 mps 747 mmHg 52%
13:00 +14°C° 0 mm 5 mps 746 mmHg 47%
14:00 +14°C° 0 mm 5 mps 746 mmHg 44%
15:00 +14°C° 0 mm 5 mps 746 mmHg 42%
16:00 +15°C° 0 mm 5 mps 746 mmHg 39%
17:00 +14°C° 0 mm 4 mps 746 mmHg 42%
18:00 +13°C° 0 mm 4 mps 746 mmHg 44%
19:00 +12°C° 0 mm 4 mps 746 mmHg 47%
20:00 +10°C° 0 mm 4 mps 746 mmHg 51%
21:00 +9°C° 0 mm 3 mps 746 mmHg 54%
22:00 +8°C° 0 mm 3 mps 747 mmHg 58%
23:00 +6°C° 0 mm 4 mps 746 mmHg 58%

Day after tomorrow, 18 April, Sunday

Time Temperature Precipitation Wind Pressure Humidity
00:00 +6°C° 0 mm 4 mps 746 mmHg 58%
01:00 +5°C° 0 mm 4 mps 746 mmHg 59%
02:00 +4°C° 0 mm 3 mps 746 mmHg 61%
03:00 +4°C° 0 mm 3 mps 746 mmHg 63%
04:00 +4°C° 0 mm 2 mps 746 mmHg 65%
05:00 +3°C° 0 mm 3 mps 747 mmHg 65%
06:00 +3°C° 0 mm 3 mps 747 mmHg 65%
07:00 +4°C° 0 mm 3 mps 747 mmHg 64%
08:00 +5°C° 0 mm 4 mps 747 mmHg 58%
09:00 +7°C° 0 mm 4 mps 747 mmHg 52%
10:00 +8°C° 0 mm 5 mps 747 mmHg 46%
11:00 +9°C° 0 mm 5 mps 747 mmHg 43%
12:00 +10°C° 0 mm 5 mps 746 mmHg 40%
13:00 +12°C° 0 mm 4 mps 746 mmHg 37%
14:00 +12°C° 0 mm 5 mps 746 mmHg 36%
15:00 +13°C° 0 mm 5 mps 746 mmHg 36%
16:00 +13°C° 0 mm 5 mps 746 mmHg 36%
17:00 +12°C° 0 mm 5 mps 746 mmHg 40%
18:00 +11°C° 0 mm 4 mps 746 mmHg 45%
19:00 +10°C° 0 mm 4 mps 746 mmHg 50%
20:00 +8°C° 0 mm 5 mps 747 mmHg 56%
21:00 +7°C° 0 mm 5 mps 747 mmHg 62%
22:00 +4°C° 0 mm 6 mps 747 mmHg 68%
23:00 +4°C° 0 mm 6 mps 747 mmHg 69%

19 April, Monday

Time Temperature Precipitation Wind Pressure Humidity
00:00 +3°C° 0 mm 5 mps 748 mmHg 70%
01:00 +2°C° 0 mm 5 mps 748 mmHg 70%
02:00 +2°C° 0 mm 5 mps 748 mmHg 73%
03:00 +1°C° 0 mm 5 mps 748 mmHg 77%
04:00 +1°C° 0 mm 6 mps 748 mmHg 80%
05:00 +1°C° 0 mm 6 mps 748 mmHg 79%
06:00 +1°C° 0 mm 6 mps 749 mmHg 78%
07:00 +1°C° 0 mm 6 mps 749 mmHg 77%
08:00 +2°C° 0 mm 6 mps 749 mmHg 70%
09:00 +3°C° 0 mm 7 mps 749 mmHg 63%
10:00 +3°C° 0 mm 7 mps 750 mmHg 56%
11:00 +3°C° 0 mm 7 mps 750 mmHg 55%
12:00 +4°C° 0 mm 7 mps 750 mmHg 55%
13:00 +4°C° 0 mm 7 mps 751 mmHg 54%
14:00 +4°C° 0 mm 7 mps 751 mmHg 54%
15:00 +4°C° 0 mm 7 mps 751 mmHg 55%
16:00 +4°C° 0 mm 6 mps 751 mmHg 55%
17:00 +4°C° 0 mm 6 mps 751 mmHg 54%
18:00 +5°C° 0 mm 5 mps 751 mmHg 54%
19:00 +5°C° 0 mm 5 mps 751 mmHg 53%
20:00 +5°C° 0 mm 5 mps 751 mmHg 55%
21:00 +3°C° 0 mm 5 mps 751 mmHg 57%
22:00 +2°C° 0 mm 5 mps 752 mmHg 59%
23:00 +1°C° 0 mm 5 mps 752 mmHg 58%

20 April, Tuesday

Time Temperature Precipitation Wind Pressure Humidity
00:00 +1°C° 0 mm 5 mps 752 mmHg 56%
01:00 -1°C° 0 mm 6 mps 752 mmHg 55%
02:00 -1°C° 0 mm 5 mps 752 mmHg 56%
03:00 -1°C° 0 mm 5 mps 753 mmHg 56%
04:00 -2°C° 0 mm 5 mps 753 mmHg 56%
05:00 -3°C° 0 mm 6 mps 753 mmHg 55%
06:00 -3°C° 0 mm 6 mps 754 mmHg 53%
07:00 -2°C° 0 mm 6 mps 754 mmHg 51%
08:00 -1°C° 0 mm 6 mps 754 mmHg 45%
09:00 0°C° 0 mm 7 mps 754 mmHg 39%
10:00 +2°C° 0 mm 7 mps 754 mmHg 33%
11:00 +3°C° 0 mm 7 mps 754 mmHg 31%
12:00 +4°C° 0 mm 7 mps 754 mmHg 29%
13:00 +6°C° 0 mm 7 mps 753 mmHg 27%
14:00 +6°C° 0 mm 7 mps 753 mmHg 26%
15:00 +8°C° 0 mm 7 mps 753 mmHg 26%
16:00 +8°C° 0 mm 7 mps 753 mmHg 25%
17:00 +8°C° 0 mm 6 mps 753 mmHg 28%
18:00 +7°C° 0 mm 6 mps 753 mmHg 31%
19:00 +6°C° 0 mm 5 mps 753 mmHg 34%
20:00 +5°C° 0 mm 5 mps 753 mmHg 37%
21:00 +3°C° 0 mm 5 mps 753 mmHg 41%
22:00 +3°C° 0 mm 4 mps 753 mmHg 44%
23:00 +2°C° 0 mm 5 mps 753 mmHg 45%

21 April, Wednesday

Time Temperature Precipitation Wind Pressure Humidity
00:00 +1°C° 0 mm 5 mps 753 mmHg 46%
01:00 +1°C° 0 mm 5 mps 754 mmHg 47%
02:00 0°C° 0 mm 5 mps 753 mmHg 49%
03:00 0°C° 0 mm 5 mps 753 mmHg 50%
04:00 -2°C° 0 mm 6 mps 753 mmHg 51%
05:00 -2°C° 0 mm 6 mps 753 mmHg 50%
06:00 -1°C° 0 mm 6 mps 754 mmHg 50%
07:00 -1°C° 0 mm 6 mps 754 mmHg 49%
08:00 0°C° 0 mm 7 mps 754 mmHg 44%
09:00 +3°C° 0 mm 7 mps 754 mmHg 39%
10:00 +4°C° 0 mm 8 mps 754 mmHg 33%
11:00 +6°C° 0 mm 8 mps 753 mmHg 31%
12:00 +7°C° 0 mm 8 mps 753 mmHg 29%
13:00 +10°C° 0 mm 8 mps 753 mmHg 26%
14:00 +10°C° 0 mm 8 mps 753 mmHg 26%
15:00 +10°C° 0 mm 8 mps 752 mmHg 26%
16:00 +11°C° 0 mm 8 mps 752 mmHg 26%
17:00 +10°C° 0 mm 7 mps 752 mmHg 29%
18:00 +10°C° 0 mm 6 mps 752 mmHg 33%
19:00 +9°C° 0 mm 5 mps 752 mmHg 36%
20:00 +8°C° 0 mm 5 mps 752 mmHg 38%
21:00 +8°C° 0 mm 5 mps 752 mmHg 41%
22:00 +7°C° 0 mm 5 mps 752 mmHg 43%
23:00 +7°C° 0 mm 5 mps 752 mmHg 45%
Show more